Simultaneous Nadir Overpasses (SNOs) Predictions

Prediction of SNOs between AQUA and GOES-15 Satellite Orbit:

Table of predicted SNOs for the next 14.0 days since TLE Epoch: 8/24/2013
Index Date Time (AQUA) AQUA Lat,Lon GOES-15 Lat,Lon Distance(km) Time Diff (sec)
1 08/24/2013 10:25:55 -0.09,-132.59 0.44,-135.12 287.08 80
2 08/24/2013 22:47:18 -1.02,-137.78 -0.44,-135.10 304.81 80
3 08/26/2013 22:35:05 -0.37,-134.82 -0.43,-135.21 43.66 80
4 08/28/2013 22:22:52 0.29,-131.86 -0.43,-135.31 391.59 80
5 08/29/2013 10:44:07 0.79,-137.02 0.42,-135.38 186.78 80
6 08/31/2013 10:31:54 0.12,-134.07 0.42,-135.48 160.43 80
7 08/31/2013 22:53:18 -1.20,-139.26 -0.41,-135.45 433.12 80
8 09/02/2013 22:41:04 -0.56,-136.29 -0.41,-135.54 86.13 80
9 09/04/2013 22:28:50 0.09,-133.33 -0.40,-135.62 260.54 80
10 09/05/2013 10:50:05 0.98,-138.49 0.39,-135.70 317.23 80




NCC Satellite Simultaneous Nadir Overpasses (SNOs) Prediction Service
